Regional Weather Roundup
Issued by NWS

Home | Current Version | Previous Version | Graphics & Text | Print | Product List | Glossary On
Versions: 1 2 3 4 5 6 7 8 9 10 11 12 13 14 15 16 17 18 19 20 21 22 23 24 25 26 27
000
ASUS45 KSLC 240010
RWRUT

UTAH REGIONAL WEATHER ROUNDUP
NATIONAL WEATHER SERVICE SALT LAKE CITY UT
600 PM MDT TUE MAY 23 2017

UTZ001>011-023>025-240100-

NORTHERN UTAH

CITY           SKY/WX    TMP DP  RH WIND       PRES   REMARKS
BRIGHAM CITY   SUNNY     77  31  18 S6        30.07F
HILL AFB       SUNNY     75  30  19 N5        30.09F
LOGAN          SUNNY     77  43  29 SE3       30.07F
OGDEN          SUNNY     78  29  16 N7        30.07F
SALT LAKE CITY MOSUNNY   81  34  18 N6        30.05F
TOOELE VALLEY  SUNNY     77  41  27 N10       30.07S
WENDOVER       SUNNY     83  35  18 SE8       30.03F
HEBER CITY     SUNNY     77  30  18 NW6       30.10F
WEST JORDAN    SUNNY     80  49  34 N10G17    30.08F

$$

UTZ011>015-024>027-240100-

CENTRAL/NORTHEAST UTAH

CITY           SKY/WX    TMP DP  RH WIND       PRES   REMARKS
PROVO AIRPORT  SUNNY     78  39  24 W7        30.07F
DELTA          SUNNY     79  30  17 SW9       30.08F
PRICE          PTSUNNY   76  34  21 VRB6      30.11F
RICHFIELD      SUNNY     79  23  12 NE10      30.13
ROOSEVELT      SUNNY     72  32  23 E5        30.12F
VERNAL         SUNNY     70  34  26 VRB5      30.11F

$$

UTZ013>016-019>022-027-240100-

SOUTHERN UTAH

CITY           SKY/WX    TMP DP  RH WIND       PRES   REMARKS
BRYCE CANYON   SUNNY     72  22  15 W17G26    30.25F
CEDAR CITY     SUNNY     81  25  12 NE8       30.11F
MILFORD        SUNNY     83  26  12 NE14G21   30.07F
ST GEORGE      CLEAR     93  27   9 W6        29.92F
HANKSVILLE     SUNNY     81  30  16 SW7       30.06F
KANAB          SUNNY     86  23  10 W16       30.09
BLANDING       SUNNY     71  25  17 NW15G29   30.21S

$$

REGIONAL REPORTS     COLORADO/ARIZONA

CITY           SKY/WX    TMP DP  RH WIND       PRES   REMARKS
CRAIG, CO      CLOUDY    61  29  29 SW8       30.18F
GRAND JUNCTION SUNNY     74  26  16 W7        30.09F
RIFLE, CO      SUNNY     70  23  17 NW9       30.15S
MONTROSE, CO   SUNNY     68  19  15 MISG      30.17F
CORTEZ, CO     SUNNY     72  15  11 N17G24    30.12F
COLORADO CITY    N/A     88  30  12 W9G22     30.11S
PAGE, AZ       SUNNY     84  30  14 E6        30.03F
GRAND CANYON   SUNNY     77  16  10 SW7G18    30.20F
KINGMAN, AZ    SUNNY     95  27   9 NW9       29.97F
FLAGSTAFF, AZ  SUNNY     74  21  13 VRB7      30.20F

$$

REGIONAL REPORTS    NEVADA/IDAHO/WYOMING

CITY           SKY/WX    TMP DP  RH WIND       PRES   REMARKS
LAS VEGAS, NV  MOSUNNY  100  18   5 N6        29.84F HX  93
ELY, NY        SUNNY     81  32  17 W7        30.14F
ELKO, NV       SUNNY     81  32  17 W13G18    30.09F
POCATELLO, ID  MOSUNNY   78  31  17 SW16      30.05F
FORT BRIDGER,    N/A     71  31  22 NW15G25   30.20F
EVANSTON, WY   SUNNY     68  35  29 W15       30.19F
ROCK SPRINGS,  CLOUDY    68  30  24 W13G20    30.15F
KEMMERER, WY     N/A     64  34  32 W21       30.20S

$$




USA.gov is the U.S. government's official web portal to all federal, state and local government web resources and services.